Weather History for KCQF - January, 2013

Change the Weather History Date:

Wednesday, January 9, 2013

  Actual Average (KMOB) Record (KMOB)
Temperature  
Mean Temperature 66 °F 50 °F  
Max Temperature 71 °F 60 °F 78 °F (1957)
Min Temperature 60 °F 40 °F 11 °F (1886)
Degree Days  
Heating Degree Days 0 15  
Month to date heating degree days 135  
Since 1 July heating degree days 797  
Cooling Degree Days 0 0  
Month to date cooling degree days 0  
Year to date cooling degree days 0  
Growing Degree Days 16 (Base 50)    
Moisture  
Dew Point 64 °F    
Average Humidity 91    
Maximum Humidity 100    
Minimum Humidity 77    
Precipitation  
Precipitation 0.00 in 0.18 in 1.26 in (1999)
Month to date precipitation 1.55  
Year to date precipitation 1.55  
Snow  
Snow 0.00 in 0.00 in 0.00 in (2002)
Month to date snowfall 0.0  
Since 1 July snowfall T  
Snow Depth -    
Sea Level Pressure  
Sea Level Pressure 30.21 in    
Wind  
Wind Speed 7 mph (East)    
Max Wind Speed 15 mph    
Max Gust Speed 20 mph    
Visibility 6 miles    
Events Rain    
T = Trace of Precipitation, MM = Missing Value Source: NWS Daily Summary

Daily Weather History Graph

Daily Weather History Graph

Search for Another Location

Airport or City:

Trip Planner

Search our weather history database for the weather conditions in past years. The results will help you decide how hot, cold, wet, or windy it might be!

Date:

Astronomy

Jan. 09, 2013 Rise Set
Actual Time 6:49 AM CST 5:08 PM CST
Civil Twilight 6:23 AM CST 5:34 PM CST
Nautical Twilight 5:53 AM CST 6:04 PM CST
Astronomical Twilight 5:24 AM CST 6:33 PM CST
Moon 4:28 AM CST (1/9) 3:09 PM CST (1/9)
Length of Visible Light 11h 11m
Length of Day
10h 18m
Waning Crescent, 6% of the Moon is Illuminated
Jan 9
Waning Crescent
Jan 11
New
Jan 18
First Quarter
Jan 26
Full
Feb 3
Last Quarter

Hourly Weather History & Observations

Time (CST) Temp. Dew Point Humidity Pressure Visibility Wind Dir Wind Speed Gust Speed Precip Events Conditions
12:35 AM 62.6 °F 55.4 °F 77% 30.19 in 7.0 mi ENE 3.5 mph - N/A   Overcast
12:55 AM 62.6 °F 55.4 °F 77% 30.18 in 10.0 mi Calm Calm - N/A   Overcast
1:15 AM 62.6 °F 57.2 °F 82% 30.19 in 10.0 mi ENE 3.5 mph - N/A   Overcast
1:35 AM 62.6 °F 57.2 °F 82% 30.19 in 7.0 mi Calm Calm - N/A   Overcast
1:55 AM 62.6 °F 57.2 °F 82% 30.19 in 7.0 mi ENE 3.5 mph - N/A   Overcast
2:15 AM 62.6 °F 57.2 °F 82% 30.20 in 7.0 mi Calm Calm - N/A   Overcast
2:35 AM 62.6 °F 57.2 °F 82% 30.19 in 10.0 mi NNE 4.6 mph - N/A   Overcast
2:55 AM 62.6 °F 57.2 °F 82% 30.20 in 7.0 mi NE 6.9 mph - N/A   Overcast
3:15 AM 62.6 °F 57.2 °F 82% 30.20 in 7.0 mi NE 5.8 mph - N/A   Overcast
3:35 AM 62.6 °F 57.2 °F 82% 30.20 in 7.0 mi NE 5.8 mph - N/A   Overcast
3:55 AM 62.6 °F 59.0 °F 88% 30.20 in 7.0 mi NE 6.9 mph - N/A Rain Light Rain
4:15 AM 60.8 °F 59.0 °F 94% 30.20 in 7.0 mi NE 6.9 mph - N/A   Overcast
4:35 AM 60.8 °F 59.0 °F 94% 30.20 in 7.0 mi NE 8.1 mph - N/A Rain Light Rain
4:55 AM 60.8 °F 59.0 °F 94% 30.20 in 7.0 mi NE 5.8 mph - N/A   Overcast
5:15 AM 60.8 °F 59.0 °F 94% 30.21 in 7.0 mi ENE 6.9 mph - N/A   Overcast
5:35 AM 60.8 °F 59.0 °F 94% 30.20 in 7.0 mi ENE 6.9 mph - N/A   Overcast
5:55 AM 60.8 °F 59.0 °F 94% 30.19 in 7.0 mi ENE 6.9 mph - N/A   Overcast
6:15 AM 62.6 °F 60.8 °F 94% 30.20 in 7.0 mi ENE 8.1 mph - N/A   Overcast
6:35 AM 62.6 °F 60.8 °F 94% 30.20 in 7.0 mi ENE 9.2 mph - N/A   Overcast
6:55 AM 62.6 °F 60.8 °F 94% 30.21 in 7.0 mi ENE 8.1 mph - N/A   Overcast
7:15 AM 62.6 °F 60.8 °F 94% 30.22 in 5.0 mi ENE 8.1 mph - N/A   Overcast
7:35 AM 62.6 °F 60.8 °F 94% 30.23 in 4.0 mi East 10.4 mph - N/A   Overcast
7:55 AM 62.6 °F 62.6 °F 100% 30.23 in 4.0 mi ENE 8.1 mph - N/A   Overcast
8:35 AM 64.4 °F 62.6 °F 94% 30.25 in 3.0 mi East 8.1 mph - N/A   Overcast
8:55 AM 64.4 °F 62.6 °F 94% 30.25 in 3.0 mi East 9.2 mph 17.3 mph N/A   Overcast
9:15 AM 64.4 °F 62.6 °F 94% 30.25 in 4.0 mi East 11.5 mph 18.4 mph N/A   Overcast
9:35 AM 66.2 °F 64.4 °F 94% 30.25 in 5.0 mi East 11.5 mph 19.6 mph N/A   Overcast
9:55 AM 66.2 °F 64.4 °F 94% 30.24 in 4.0 mi East 11.5 mph - N/A   Overcast
10:15 AM 68.0 °F 64.4 °F 88% 30.24 in 3.0 mi East 12.7 mph 18.4 mph N/A   Overcast
10:35 AM 68.0 °F 64.4 °F 88% 30.23 in 4.0 mi East 10.4 mph - N/A   Overcast
10:55 AM 68.0 °F 64.4 °F 88% 30.22 in 7.0 mi East 15.0 mph - N/A   Overcast
11:35 AM 69.8 °F 64.4 °F 83% 30.22 in 7.0 mi East 11.5 mph 17.3 mph N/A   Overcast
12:15 PM 69.8 °F 66.2 °F 88% 30.22 in 7.0 mi ESE 11.5 mph 18.4 mph N/A   Overcast
12:35 PM 69.8 °F 66.2 °F 88% 30.21 in 7.0 mi East 10.4 mph - N/A   Overcast
12:55 PM 69.8 °F 66.2 °F 88% 30.20 in 5.0 mi East 10.4 mph 17.3 mph N/A   Overcast
1:15 PM 69.8 °F 66.2 °F 88% 30.20 in 5.0 mi East 6.9 mph - N/A   Overcast
1:35 PM 69.8 °F 66.2 °F 88% 30.19 in 7.0 mi East 10.4 mph - N/A   Overcast
1:55 PM 69.8 °F 66.2 °F 88% 30.18 in 7.0 mi ESE 13.8 mph - N/A   Overcast
2:15 PM 69.8 °F 66.2 °F 88% 30.17 in 7.0 mi East 10.4 mph - N/A   Overcast
2:35 PM 69.8 °F 66.2 °F 88% 30.18 in 7.0 mi East 10.4 mph - N/A   Overcast
2:55 PM 69.8 °F 68.0 °F 94% 30.18 in 7.0 mi East 11.5 mph - N/A   Overcast
3:15 PM 71.6 °F 68.0 °F 88% 30.18 in 7.0 mi East 9.2 mph - N/A   Overcast
3:35 PM 69.8 °F 68.0 °F 94% 30.18 in 5.0 mi East 10.4 mph - N/A   Overcast
3:55 PM 69.8 °F 68.0 °F 94% 30.19 in 4.0 mi East 9.2 mph - N/A   Overcast
4:15 PM 69.8 °F 68.0 °F 94% 30.19 in 4.0 mi East 9.2 mph - N/A   Overcast
4:35 PM 69.8 °F 66.2 °F 88% 30.19 in 5.0 mi East 10.4 mph - N/A   Overcast
4:55 PM 69.8 °F 68.0 °F 94% 30.20 in 5.0 mi East 8.1 mph - N/A   Overcast
5:15 PM 69.8 °F 68.0 °F 94% 30.21 in 5.0 mi East 6.9 mph - N/A   Overcast
5:55 PM 68.0 °F 68.0 °F 100% 30.22 in 7.0 mi East 10.4 mph - N/A   Overcast
6:15 PM 68.0 °F 68.0 °F 100% 30.23 in 7.0 mi ESE 8.1 mph - N/A   Overcast
6:35 PM 68.0 °F 68.0 °F 100% 30.23 in 5.0 mi East 12.7 mph - N/A   Overcast
6:55 PM 68.0 °F 68.0 °F 100% 30.22 in 2.0 mi East 11.5 mph - N/A   Overcast
7:15 PM 68.0 °F 68.0 °F 100% 30.22 in 3.0 mi East 9.2 mph 17.3 mph N/A   Overcast
7:35 PM 68.0 °F 68.0 °F 100% 30.23 in 1.5 mi East 10.4 mph - N/A   Overcast
7:55 PM 68.0 °F 68.0 °F 100% 30.23 in 3.0 mi East 9.2 mph - N/A   Overcast
8:35 PM 68.0 °F 68.0 °F 100% 30.24 in 5.0 mi East 9.2 mph - N/A   Overcast
8:55 PM 69.8 °F 68.0 °F 94% 30.24 in 5.0 mi East 10.4 mph 16.1 mph N/A   Overcast
9:15 PM 69.8 °F 68.0 °F 94% 30.24 in 7.0 mi ESE 12.7 mph 17.3 mph N/A   Overcast
9:55 PM 69.8 °F 68.0 °F 94% 30.25 in 7.0 mi ESE 10.4 mph - N/A   Overcast
10:15 PM 69.8 °F 68.0 °F 94% 30.25 in 5.0 mi East 11.5 mph 16.1 mph N/A   Overcast
10:35 PM 69.8 °F 68.0 °F 94% 30.26 in 5.0 mi East 10.4 mph - N/A   Overcast
11:15 PM 69.8 °F 68.0 °F 94% 30.25 in 7.0 mi East 10.4 mph - N/A   Overcast
11:35 PM 69.8 °F 68.0 °F 94% 30.25 in 7.0 mi East 11.5 mph - N/A   Overcast
11:55 PM 69.8 °F 68.0 °F 94% 30.25 in 5.0 mi East 10.4 mph 16.1 mph N/A   Overcast